Hourly Weather Samroung

Today, 28 September, Monday

Time Temperature Precipitation Wind Pressure Humidity
00:00 +27°C° 0.8 mm 3 mps 754 mmHg 96%
01:00 +27°C° 0 mm 3 mps 753 mmHg 97%
02:00 +27°C° 1.2 mm 3 mps 753 mmHg 97%
03:00 +27°C° 1.2 mm 2 mps 753 mmHg 96%
04:00 +27°C° 1.2 mm 2 mps 752 mmHg 96%
05:00 +27°C° 1.6 mm 2 mps 753 mmHg 96%
06:00 +27°C° 1.6 mm 2 mps 753 mmHg 95%
07:00 +27°C° 1.6 mm 2 mps 754 mmHg 94%
08:00 +27°C° 5.8 mm 2 mps 754 mmHg 95%
09:00 +28°C° 5.8 mm 3 mps 754 mmHg 95%
10:00 +28°C° 5.8 mm 3 mps 754 mmHg 96%
11:00 +27°C° 14.4 mm 4 mps 754 mmHg 97%
12:00 +27°C° 14.4 mm 5 mps 753 mmHg 97%
13:00 +27°C° 14.4 mm 6 mps 753 mmHg 98%
14:00 +27°C° 2.9 mm 6 mps 752 mmHg 96%
15:00 +27°C° 2.9 mm 6 mps 752 mmHg 94%
16:00 +27°C° 2.9 mm 6 mps 752 mmHg 93%
17:00 +27°C° 0.2 mm 5 mps 752 mmHg 93%
18:00 +27°C° 0.2 mm 5 mps 753 mmHg 94%
19:00 +27°C° 0.2 mm 4 mps 753 mmHg 95%
20:00 +27°C° 0.8 mm 4 mps 754 mmHg 95%
21:00 +27°C° 0.8 mm 4 mps 755 mmHg 95%
22:00 +27°C° 0.8 mm 3 mps 755 mmHg 96%
23:00 +27°C° 1.1 mm 3 mps 755 mmHg 96%

Tomorrow, 29 September, Tuesday

Time Temperature Precipitation Wind Pressure Humidity
00:00 +26°C° 1.1 mm 3 mps 754 mmHg 96%
01:00 +26°C° 1.1 mm 3 mps 754 mmHg 96%
02:00 +26°C° 1.2 mm 3 mps 754 mmHg 96%
03:00 +26°C° 1.2 mm 3 mps 754 mmHg 95%
04:00 +26°C° 1.2 mm 3 mps 754 mmHg 95%
05:00 +27°C° 1.2 mm 3 mps 754 mmHg 94%
06:00 +27°C° 1.2 mm 2 mps 754 mmHg 94%
07:00 +27°C° 1.2 mm 1 mps 754 mmHg 94%
08:00 +28°C° 1.1 mm 2 mps 755 mmHg 89%
09:00 +29°C° 1.1 mm 2 mps 755 mmHg 85%
10:00 +30°C° 1.1 mm 3 mps 755 mmHg 81%
11:00 +31°C° 0.9 mm 3 mps 755 mmHg 80%
12:00 +32°C° 0.9 mm 4 mps 754 mmHg 79%
13:00 +32°C° 0.9 mm 4 mps 754 mmHg 77%
14:00 +32°C° 0.4 mm 4 mps 753 mmHg 78%
15:00 +32°C° 0.4 mm 4 mps 753 mmHg 79%
16:00 +30°C° 0.4 mm 4 mps 752 mmHg 80%
17:00 +29°C° 0 mm 4 mps 753 mmHg 84%
18:00 +28°C° 0 mm 3 mps 753 mmHg 88%
19:00 +27°C° 0 mm 2 mps 754 mmHg 91%
20:00 +27°C° 0 mm 2 mps 754 mmHg 92%
21:00 +27°C° 0 mm 2 mps 755 mmHg 92%
22:00 +27°C° 0 mm 2 mps 755 mmHg 92%
23:00 +27°C° 0.2 mm 2 mps 755 mmHg 92%

Day after tomorrow, 30 September, Wednesday

Time Temperature Precipitation Wind Pressure Humidity
00:00 +27°C° 0.2 mm 2 mps 754 mmHg 92%
01:00 +27°C° 0.2 mm 1 mps 754 mmHg 93%
02:00 +27°C° 0.7 mm 2 mps 754 mmHg 93%
03:00 +27°C° 0.7 mm 2 mps 754 mmHg 93%
04:00 +27°C° 0.7 mm 2 mps 753 mmHg 93%
05:00 +27°C° 0.2 mm 2 mps 754 mmHg 92%
06:00 +27°C° 0.2 mm 2 mps 754 mmHg 91%
07:00 +28°C° 0.2 mm 2 mps 755 mmHg 90%
08:00 +29°C° 0.1 mm 2 mps 755 mmHg 84%
09:00 +30°C° 0.1 mm 2 mps 755 mmHg 78%
10:00 +31°C° 0.1 mm 3 mps 756 mmHg 72%
11:00 +33°C° 0.3 mm 3 mps 755 mmHg 70%
12:00 +33°C° 0.3 mm 4 mps 754 mmHg 68%
13:00 +34°C° 0.3 mm 4 mps 753 mmHg 66%
14:00 +33°C° 0.1 mm 4 mps 753 mmHg 67%
15:00 +33°C° 0.1 mm 4 mps 752 mmHg 69%
16:00 +32°C° 0.1 mm 5 mps 752 mmHg 71%
17:00 +30°C° 0 mm 4 mps 752 mmHg 77%
18:00 +29°C° 0 mm 3 mps 753 mmHg 83%
19:00 +28°C° 0 mm 3 mps 753 mmHg 89%
20:00 +28°C° 0 mm 3 mps 753 mmHg 89%
21:00 +28°C° 0 mm 3 mps 754 mmHg 90%
22:00 +28°C° 0 mm 3 mps 754 mmHg 91%
23:00 +28°C° 0.4 mm 3 mps 754 mmHg 91%

1 October, Thursday

Time Temperature Precipitation Wind Pressure Humidity
00:00 +28°C° 0.4 mm 3 mps 754 mmHg 91%
01:00 +28°C° 0.4 mm 3 mps 753 mmHg 91%
02:00 +28°C° 0 mm 3 mps 753 mmHg 92%
03:00 +28°C° 0 mm 3 mps 753 mmHg 92%
04:00 +28°C° 0 mm 3 mps 752 mmHg 92%
05:00 +28°C° 0 mm 3 mps 753 mmHg 91%
06:00 +28°C° 0 mm 3 mps 753 mmHg 90%
07:00 +28°C° 0 mm 3 mps 754 mmHg 89%
08:00 +29°C° 0 mm 3 mps 754 mmHg 83%
09:00 +30°C° 0 mm 3 mps 754 mmHg 78%
10:00 +32°C° 0 mm 4 mps 755 mmHg 72%
11:00 +33°C° 0 mm 4 mps 754 mmHg 70%
12:00 +34°C° 0 mm 4 mps 753 mmHg 67%
13:00 +34°C° 0 mm 5 mps 752 mmHg 65%
14:00 +34°C° 0.2 mm 4 mps 752 mmHg 68%
15:00 +33°C° 0.2 mm 4 mps 752 mmHg 70%
16:00 +32°C° 0.2 mm 4 mps 751 mmHg 73%
17:00 +30°C° 0 mm 4 mps 752 mmHg 78%
18:00 +29°C° 0 mm 3 mps 752 mmHg 84%
19:00 +28°C° 0 mm 3 mps 753 mmHg 90%
20:00 +28°C° 0 mm 3 mps 753 mmHg 90%
21:00 +28°C° 0 mm 2 mps 753 mmHg 90%
22:00 +28°C° 0 mm 2 mps 754 mmHg 91%
23:00 +28°C° 0 mm 2 mps 753 mmHg 91%

2 October, Friday

Time Temperature Precipitation Wind Pressure Humidity
00:00 +28°C° 0 mm 2 mps 753 mmHg 92%
01:00 +28°C° 0 mm 2 mps 753 mmHg 92%
02:00 +27°C° 0 mm 2 mps 753 mmHg 93%
03:00 +27°C° 0 mm 2 mps 752 mmHg 93%
04:00 +27°C° 0 mm 2 mps 752 mmHg 94%
05:00 +27°C° 0.2 mm 2 mps 752 mmHg 92%
06:00 +28°C° 0.2 mm 2 mps 753 mmHg 91%
07:00 +28°C° 0.2 mm 1 mps 754 mmHg 90%
08:00 +29°C° 3.5 mm 2 mps 754 mmHg 87%
09:00 +30°C° 3.5 mm 2 mps 754 mmHg 85%
10:00 +31°C° 3.5 mm 2 mps 754 mmHg 82%
11:00 +31°C° 1.6 mm 2 mps 754 mmHg 81%
12:00 +31°C° 1.6 mm 3 mps 753 mmHg 80%
13:00 +31°C° 1.6 mm 3 mps 752 mmHg 80%
14:00 +31°C° 0.1 mm 3 mps 752 mmHg 80%
15:00 +31°C° 0.1 mm 3 mps 752 mmHg 81%
16:00 +30°C° 0.1 mm 3 mps 752 mmHg 82%
17:00 +30°C° 0.1 mm 3 mps 752 mmHg 85%
18:00 +29°C° 0.1 mm 2 mps 752 mmHg 89%
19:00 +28°C° 0.1 mm 1 mps 753 mmHg 92%
20:00 +28°C° 0 mm 1 mps 753 mmHg 92%
21:00 +28°C° 0 mm 1 mps 754 mmHg 92%
22:00 +28°C° 0 mm 1 mps 754 mmHg 92%
23:00 +28°C° 0.1 mm 1 mps 754 mmHg 92%

3 October, Saturday

Time Temperature Precipitation Wind Pressure Humidity
00:00 +28°C° 0.1 mm 1 mps 754 mmHg 92%
01:00 +27°C° 0.1 mm 1 mps 753 mmHg 93%
02:00 +27°C° 1.4 mm 1 mps 753 mmHg 93%
03:00 +27°C° 1.4 mm 1 mps 753 mmHg 92%
04:00 +27°C° 1.4 mm 1 mps 753 mmHg 92%
05:00 +28°C° 0.5 mm 1 mps 753 mmHg 90%
06:00 +28°C° 0.5 mm 1 mps 754 mmHg 88%
07:00 +29°C° 0.5 mm 1 mps 754 mmHg 85%
08:00 +30°C° 0.1 mm 1 mps 754 mmHg 79%
09:00 +32°C° 0.1 mm 1 mps 755 mmHg 72%
10:00 +33°C° 0.1 mm 1 mps 755 mmHg 66%
11:00 +34°C° 0.4 mm 2 mps 754 mmHg 68%
12:00 +34°C° 0.4 mm 2 mps 754 mmHg 71%
13:00 +32°C° 0.4 mm 2 mps 753 mmHg 74%
14:00 +32°C° 0.6 mm 2 mps 753 mmHg 76%
15:00 +32°C° 0.6 mm 2 mps 752 mmHg 77%
16:00 +31°C° 0.6 mm 2 mps 752 mmHg 78%
17:00 +30°C° 0.1 mm 2 mps 752 mmHg 82%
18:00 +29°C° 0.1 mm 2 mps 753 mmHg 86%
19:00 +28°C° 0.1 mm 2 mps 754 mmHg 91%
20:00 +28°C° 0 mm 1 mps 754 mmHg 91%
21:00 +28°C° 0 mm 1 mps 754 mmHg 91%
22:00 +28°C° 0 mm 1 mps 755 mmHg 91%
23:00 +28°C° 0 mm 1 mps 755 mmHg 91%
Show more